Theta_e
312 312 312 312 311 307 305 309 305 312 312 305 301 301 301 298 300 302 301 302 300 298 296 295 294 294 293 296 296 296 298 298 293 291 295 296 294 292 293 294 292 291 293 286
312 312 312 311 310 307 308 308 308 314 313 300 300 300 297 299 299 298 298 298 299 299 295 295 292 292 294 297 298 297 298 292 289 289 292 294 292 291 291 293 293 287 289 286
312 312 312 311 310 308 309 307 303 306 305 302 301 298 296 295 300 298 298 298 299 296 293 293 292 291 295 299 300 300 299 291 290 291 290 291 288 288 290 291 290 288 287 283
313 312 312 311 309 307 309 304 300 301 296 297 297 298 297 294 294 298 299 297 295 295 293 291 291 291 295 297 300 295 296 288 289 288 289 288 286 286 288 288 288 288 285 286
313 312 312 311 309 307 308 305 301 300 298 296 297 296 295 294 294 295 294 293 294 294 292 293 292 293 294 293 296 294 294 286 289 285 287 287 284 285 286 286 286 285 285 283
312 312 312 311 308 308 308 305 303 304 296 296 295 294 293 293 296 296 296 294 294 293 293 295 296 297 297 296 296 293 292 290 288 284 288 288 285 285 284 284 287 286 283 285
312 312 312 312 309 307 309 304 304 301 294 296 295 295 295 294 294 293 296 297 295 297 298 298 298 299 298 298 296 296 292 292 290 286 287 281 286 290 289 286 286 287 286 287
312 312 313 312 310 306 304 303 305 302 295 296 297 298 297 299 297 295 295 297 298 299 297 294 290 291 292 294 295 295 296 293 287 285 284 283 285 288 288 288 285 288 287 288
312 312 313 313 312 308 306 303 304 304 298 296 296 297 298 296 296 296 297 301 302 300 296 292 285 284 286 287 290 295 295 295 291 286 282 279 287 291 294 293 284 291 290 289
312 312 313 313 313 311 310 306 307 306 298 300 300 297 297 299 297 295 296 299 299 300 295 290 289 287 290 286 286 287 289 289 286 285 283 284 291 293 294 282 285 292 292 292
311 312 313 313 313 312 311 307 308 307 300 301 302 302 299 300 299 296 299 296 297 298 293 291 288 288 289 288 288 287 286 286 286 285 282 278 293 291 287 291 294 294 294 294
311 312 313 313 313 311 311 307 308 308 305 303 303 305 305 302 302 301 301 298 297 299 294 293 291 289 290 288 285 291 286 288 286 285 285 291 293 292 294 296 294 295 295 296
310 311 313 313 312 311 311 309 306 308 304 302 303 302 307 309 303 305 299 300 300 299 300 297 293 289 292 288 287 289 291 292 289 288 290 292 294 296 296 297 296 298 298 297
310 311 312 312 311 309 311 310 308 306 303 299 300 307 306 308 306 302 302 302 301 301 301 295 292 290 293 289 289 290 291 292 289 289 292 294 295 296 297 297 299 298 299 298
310 312 313 312 311 308 307 308 308 307 305 298 301 305 306 308 307 304 303 302 300 299 297 295 292 294 292 290 291 290 293 291 290 289 294 294 294 298 299 298 298 299 298 297
311 312 312 311 309 307 307 305 305 310 307 302 296 303 303 306 306 305 303 301 299 298 297 294 295 294 293 290 288 293 294 294 295 294 298 297 299 300 300 299 300 300 300 300
309 310 310 309 307 307 306 303 306 307 308 303 297 297 303 304 304 303 304 302 300 299 296 294 295 295 294 292 288 293 296 297 298 300 300 297 299 298 302 302 301 301 301 301
308 309 309 308 305 306 306 308 309 308 305 303 297 296 300 303 300 300 301 299 301 297 296 297 295 296 295 288 294 296 297 298 299 299 300 299 301 301 301 302 301 300 300 300
308 308 309 309 308 307 307 311 311 309 306 298 298 294 293 302 300 301 301 300 296 297 295 295 295 293 288 292 295 297 299 298 299 302 302 301 300 300 301 301 301 299 298 299
307 310 307 305 306 309 310 308 305 304 302 302 297 297 296 299 300 299 299 299 294 293 295 297 291 290 295 299 299 300 300 302 302 299 298 299 300 300 302 302 301 300 300 299
307 304 304 307 307 307 304 299 297 297 295 299 298 298 296 301 297 297 300 296 297 291 294 293 290 291 296 299 301 303 303 303 303 303 303 303 304 303 303 303 303 302 301 299
304 304 305 305 302 298 295 293 295 294 292 298 296 297 298 300 302 299 299 294 296 288 295 291 287 294 297 300 301 302 303 304 303 304 304 305 305 305 304 302 303 303 304 304
308 304 301 299 297 291 290 288 292 293 296 298 297 296 297 301 302 299 297 291 290 295 288 286 290 295 296 299 301 302 303 303 304 303 303 304 304 305 304 304 304 305 305 306
305 299 290 294 292 294 294 295 296 299 297 299 298 297 296 298 298 297 291 293 292 285 283 286 294 296 298 301 302 303 302 302 302 302 302 301 301 302 303 304 305 304 304 305
301 299 291 294 298 298 298 299 298 300 300 299 298 297 297 298 294 297 293 288 284 286 288 293 297 299 300 301 301 301 301 300 302 303 302 302 301 302 303 304 305 305 305 305
302 299 296 298 297 297 297 297 298 300 300 299 299 295 293 292 293 290 288 285 284 291 296 299 300 299 300 301 301 301 301 301 302 302 302 301 302 302 303 303 303 303 303 304
299 299 300 300 299 298 298 298 299 300 300 297 296 291 290 295 291 289 293 291 295 298 300 300 300 300 301 301 300 301 301 302 302 302 302 302 303 303 302 302 303 303 303 304
Wind_Speed
23 23 22 22 17 10 4 1 2 4 2 2 1 2 2 4 3 7 3 2 4 3 2 1 1 3 2 2 2 2 2 2 2 3 5 6 3 3 1 4 4 3 4 7
24 24 23 21 18 6 0 2 2 2 1 2 1 0 2 3 4 5 5 2 5 3 2 2 1 1 1 2 1 2 4 2 5 4 5 2 3 3 3 6 2 2 4 6
25 25 24 22 17 6 0 1 3 3 5 3 1 2 2 2 6 3 3 3 2 1 1 2 2 3 2 2 5 9 6 5 5 5 4 3 3 4 2 2 4 8 2 10
26 26 24 22 17 1 0 4 3 2 3 6 6 2 4 3 5 7 8 3 7 3 2 1 3 3 3 4 3 5 4 6 7 10 9 10 10 9 5 5 5 4 12 10
26 27 25 23 19 0 5 2 2 4 4 3 5 9 7 7 3 7 5 5 8 4 2 3 3 4 3 1 4 3 2 8 7 9 10 13 16 12 16 16 16 15 15 9
26 27 26 26 23 4 4 2 2 2 6 4 3 4 4 7 2 4 5 4 3 10 8 4 4 7 8 3 2 4 4 10 5 7 4 5 8 7 8 9 7 11 5 6
25 25 26 24 21 11 3 3 1 4 5 6 5 4 3 9 6 2 5 7 2 4 2 2 1 10 15 14 10 3 9 7 3 7 4 6 5 3 4 12 9 9 11 10
24 25 25 25 21 13 7 2 2 4 5 2 7 10 6 5 3 4 3 5 4 4 3 1 2 2 1 7 12 8 3 4 6 5 3 2 3 6 5 3 6 7 9 10
23 24 24 23 22 15 5 6 2 5 4 8 4 4 5 4 5 4 2 2 3 0 2 3 2 3 4 2 2 6 9 8 4 4 4 4 4 6 3 2 5 11 10 10
21 23 23 23 21 18 9 6 4 6 6 6 5 6 5 4 2 3 3 6 4 2 2 3 3 1 1 1 2 5 4 4 4 4 4 3 4 5 4 4 5 12 10 9
19 20 21 21 19 15 8 5 8 7 7 6 7 6 6 4 3 4 5 3 2 1 2 1 3 3 3 2 3 3 4 3 3 3 4 4 3 5 4 5 7 10 8 7
18 18 20 19 18 14 6 7 4 3 6 4 2 1 2 3 7 3 1 3 1 1 3 1 3 2 1 2 3 3 2 4 3 4 3 4 2 1 5 5 9 7 7 6
16 16 17 18 16 13 5 3 4 2 3 6 5 7 7 9 3 4 3 1 2 2 3 2 2 5 2 2 3 3 3 1 5 3 4 7 7 6 5 7 6 6 4 4
16 15 13 12 11 12 5 4 2 3 2 2 2 2 5 7 8 4 2 4 5 4 2 3 3 3 3 3 3 3 3 1 5 8 7 7 5 5 7 6 4 4 2 3
16 15 13 10 6 2 6 3 3 1 1 2 1 4 5 8 9 12 10 5 3 2 3 4 4 2 2 2 1 4 2 4 1 3 9 1 8 6 6 5 5 5 4 4
16 15 13 11 6 5 1 2 2 4 2 2 1 1 5 10 8 11 11 6 5 3 3 3 3 3 0 2 3 4 3 1 0 6 7 5 5 4 5 5 5 6 6 7
16 13 11 10 3 2 4 3 5 4 1 2 2 3 5 6 4 3 3 5 4 4 3 4 2 2 2 2 2 3 5 6 7 9 7 4 4 3 5 6 4 5 7 6
16 13 8 2 6 7 1 3 5 2 4 3 3 3 2 7 4 4 5 4 2 6 2 1 3 1 3 3 4 3 4 6 5 4 2 2 0 3 2 4 4 6 7 6
16 10 1 1 4 3 3 9 1 2 4 3 2 4 4 5 2 2 1 2 3 1 3 3 2 1 4 3 5 6 5 3 4 1 2 3 5 5 5 5 7 7 7 6
8 4 3 2 1 7 4 2 2 5 5 4 3 0 3 3 3 3 2 2 2 2 3 1 4 1 1 2 4 2 3 2 2 2 3 2 4 3 4 6 6 7 8 7
4 4 1 3 9 0 3 3 4 4 2 2 2 2 4 2 3 2 3 1 1 1 3 2 2 2 2 2 4 5 6 4 4 5 6 6 8 7 6 6 4 4 6 7
2 2 2 3 4 3 4 3 2 3 3 3 4 4 3 1 2 2 2 1 1 3 1 0 1 1 2 2 4 3 4 3 4 4 7 6 7 4 4 3 3 2 1 1
2 0 2 3 3 7 3 5 2 3 2 2 4 5 2 1 1 1 2 2 2 1 2 1 2 1 3 3 1 1 2 2 1 1 2 1 2 2 2 2 3 2 3 3
2 3 5 3 2 1 1 1 2 3 4 5 4 3 2 1 1 1 2 2 1 1 2 0 1 2 1 1 2 3 3 1 2 0 1 3 4 3 3 4 4 5 6 5
2 1 2 1 1 2 2 2 3 3 3 4 3 2 2 1 1 1 1 2 1 1 1 0 1 3 2 2 2 1 1 3 2 2 3 2 3 4 6 5 5 5 7 7
0 2 1 1 1 1 2 2 3 0 2 1 1 2 2 1 3 2 1 0 2 0 2 1 1 3 3 1 1 1 2 3 3 3 4 4 4 5 7 8 5 4 5 6
1 1 0 1 2 3 2 1 1 0 2 2 1 3 2 1 2 1 1 2 1 1 1 1 4 4 3 2 1 1 1 2 3 4 4 5 5 5 5 5 7 6 5 4
Wind_Direction
343 344 342 340 345 341 159 92 88 16 292 77 28 168 181 358 0 16 8 57 32 34 55 78 192 221 29 359 288 185 77 74 103 79 93 70 66 92 0 259 179 48 349 115
347 346 343 341 342 347 221 67 91 55 275 161 159 152 102 52 24 32 17 58 27 29 66 285 220 171 53 14 119 158 160 54 146 156 196 164 59 47 94 106 120 128 260 109
349 347 345 342 341 344 298 117 114 51 53 23 41 116 25 100 33 75 359 14 120 116 117 28 179 178 59 81 94 71 82 74 1 276 41 62 113 29 1 290 199 143 70 142
349 349 348 346 349 92 179 16 81 1 36 43 53 54 10 32 12 358 19 89 29 316 245 204 214 194 163 89 113 66 78 98 90 66 76 93 88 67 79 100 103 255 141 144
352 352 352 356 356 56 77 53 111 59 57 353 41 16 13 29 31 8 10 36 347 345 288 306 281 189 219 153 86 80 60 130 127 69 97 98 90 73 81 86 91 94 121 121
355 352 357 2 6 14 76 44 83 84 7 30 65 24 26 30 319 61 52 327 7 25 350 344 51 84 68 73 133 116 111 147 167 142 147 177 96 45 86 101 91 135 153 120
356 357 1 9 17 35 76 40 45 76 50 64 47 34 58 31 22 26 10 15 56 119 241 269 233 78 75 61 45 38 138 127 88 136 195 210 80 58 119 107 105 112 113 137
360 3 6 10 24 27 72 31 42 72 82 25 43 29 12 12 10 36 356 26 353 308 352 276 340 4 86 55 45 38 69 123 105 156 118 78 185 178 176 204 147 148 135 144
3 5 2 6 15 27 67 46 352 75 88 24 311 354 12 10 352 3 0 27 322 41 51 32 28 28 336 54 93 59 66 67 106 151 146 185 75 150 137 148 148 160 151 148
4 6 4 6 12 16 48 42 8 73 89 31 354 27 351 338 337 297 308 343 358 339 72 16 342 56 353 316 45 359 13 27 73 115 103 116 121 133 155 234 99 152 151 152
359 5 5 8 4 11 36 54 12 68 82 54 36 34 15 341 344 329 2 252 117 4 132 260 67 297 61 105 41 18 27 358 67 111 113 167 134 131 215 96 129 144 155 165
352 0 5 6 8 7 35 56 25 14 64 49 336 347 91 341 290 277 329 344 14 51 102 148 140 162 148 24 108 57 72 19 100 5 80 66 114 108 119 136 140 154 165 172
346 356 2 1 3 13 62 70 357 45 65 71 40 11 2 10 328 290 289 136 93 101 9 102 96 89 324 79 76 115 88 130 106 156 113 102 109 109 124 145 140 152 178 182
342 347 353 356 1 1 17 66 357 63 78 54 19 330 29 347 32 60 346 107 98 97 50 68 71 89 2 57 70 58 19 287 116 99 119 127 133 140 152 164 169 184 200 204
340 339 338 345 2 352 61 74 41 37 323 117 350 307 31 14 34 49 54 70 87 50 71 47 64 67 144 83 147 50 345 132 168 142 161 126 152 168 175 192 210 221 231 198
338 336 332 338 4 142 183 2 94 27 349 127 36 4 345 3 20 28 27 33 50 58 59 75 82 60 343 85 78 32 33 175 167 116 136 105 129 172 188 221 231 232 234 228
334 332 334 340 25 87 47 50 324 358 280 72 47 4 19 346 0 36 8 27 47 28 80 55 42 54 335 84 84 83 61 88 118 129 139 141 181 138 193 222 233 240 245 243
326 321 324 355 70 112 75 7 1 344 92 48 37 334 325 11 3 357 4 6 32 35 75 115 22 73 11 76 113 120 116 107 119 164 229 66 44 200 241 224 225 235 238 235
321 316 170 149 36 15 338 329 302 21 36 84 46 339 325 349 29 324 342 354 60 356 54 45 313 12 41 118 140 133 137 137 136 221 249 231 241 259 266 260 246 247 252 242
319 28 35 14 10 319 289 19 31 29 8 27 37 291 312 326 349 18 326 28 36 49 49 314 41 91 325 202 223 210 190 177 192 268 248 249 275 288 294 281 280 260 256 273
28 18 359 318 319 38 33 46 31 348 45 360 10 292 313 65 329 352 13 34 2 43 46 339 33 73 50 317 249 224 216 224 245 272 284 283 284 290 309 331 299 282 273 265
350 310 285 288 22 46 60 18 353 25 354 323 322 343 305 345 305 291 35 357 278 54 349 37 60 207 313 38 79 121 186 228 262 266 276 284 285 279 285 269 307 337 314 331
200 338 47 15 341 45 46 3 359 320 337 339 329 327 344 233 354 34 297 56 57 198 34 17 238 350 287 289 250 118 145 183 211 58 9 311 322 182 245 273 223 266 295 297
41 29 16 38 31 69 219 255 261 299 271 315 319 289 322 348 311 6 329 52 245 28 22 333 186 200 307 5 112 165 120 27 294 161 0 29 16 356 326 312 290 287 283 287
67 73 55 47 353 248 253 256 273 230 276 310 282 247 285 327 294 359 210 209 351 227 263 157 175 203 203 152 115 148 300 329 335 308 316 319 322 316 306 307 294 271 278 280
98 100 142 143 265 275 241 232 266 104 323 225 245 319 297 14 326 273 347 327 242 324 228 312 230 200 208 197 206 272 284 282 282 296 298 299 291 308 313 310 309 310 315 309
112 124 111 223 273 264 267 246 291 11 291 322 329 298 342 310 255 255 171 254 332 273 254 243 221 212 217 195 237 283 310 262 281 284 273 277 291 306 316 349 3 2 2 15